Wind_Speed
14 15 14 14 14 15 14 14 14 11 10 10 12 12 11 11 9 9 8 8 8 8 8 7 6 5 5 5 5 4 4 3 3 4 5 6 7 8 8 8 7 6 8
12 12 13 13 13 15 15 15 14 14 12 12 12 14 13 11 11 11 10 10 10 10 9 9 10 9 8 10 9 8 7 6 6 5 6 6 5 6 6 6 6 6 7
13 13 13 15 15 15 14 15 16 15 15 14 14 14 14 14 13 13 13 13 12 11 11 10 11 11 11 12 12 12 11 11 11 10 8 9 8 8 7 7 6 6 6
14 14 15 16 16 17 16 17 17 16 16 16 16 16 16 16 16 16 15 15 15 14 14 14 14 14 14 14 14 15 14 13 14 12 12 12 12 12 11 10 10 8 8
15 15 14 15 16 17 17 18 19 18 19 18 18 19 18 18 19 19 18 19 18 18 18 17 17 17 17 17 17 18 16 17 17 15 16 14 14 15 15 15 14 12 11
16 16 15 17 17 18 18 19 18 18 19 18 18 18 19 20 21 21 22 22 22 21 20 20 20 20 20 20 20 21 20 19 18 16 21 19 18 19 17 17 17 15 13
17 17 17 19 20 21 21 21 22 21 21 20 20 21 21 21 21 22 23 23 23 23 22 22 23 23 23 23 24 25 24 22 22 21 23 22 22 22 20 20 19 19 16
19 19 18 20 20 22 22 22 24 24 24 23 24 25 25 25 25 25 25 25 25 25 25 25 25 26 26 26 26 28 28 26 26 27 26 26 25 24 24 23 21 20 19
18 20 21 21 22 23 25 26 26 26 27 26 26 26 28 28 29 29 29 28 29 29 29 28 29 29 29 30 29 29 30 30 29 29 28 27 27 26 26 24 23 22 20
22 23 25 26 26 27 27 29 28 29 28 28 29 28 28 29 29 29 30 29 30 29 30 30 29 28 29 29 28 28 30 29 29 31 29 29 28 27 26 25 25 25 24
25 25 26 24 24 26 28 29 31 32 33 33 32 32 32 32 32 32 32 32 32 31 31 31 32 32 32 32 32 32 32 32 30 32 30 29 29 29 27 26 25 24 24
29 28 28 28 28 28 28 28 30 31 31 33 33 34 35 35 36 36 36 35 36 37 37 36 35 35 35 36 35 34 34 34 32 31 31 31 31 31 29 28 27 26 25
26 27 27 28 28 30 29 31 33 33 34 35 35 35 36 37 37 38 38 38 38 38 37 37 36 35 35 35 35 35 34 33 33 29 30 29 27 26 24 24 25 26 24
22 24 25 26 28 30 31 32 33 34 35 36 36 37 37 38 38 38 39 38 38 37 37 36 36 35 35 35 34 35 34 34 33 31 30 30 29 29 29 29 25 24 25
24 25 27 28 30 31 32 33 34 35 36 37 37 38 37 38 38 38 38 38 38 38 38 37 37 37 37 37 37 37 37 37 36 35 34 34 35 34 34 32 30 30 30
29 31 31 33 34 35 37 38 39 40 41 41 41 42 42 42 42 41 41 41 41 41 41 41 41 40 40 40 39 39 39 39 39 37 37 37 37 38 37 35 34 34 33
34 35 37 38 39 40 41 42 43 44 45 45 45 45 45 45 45 44 45 45 44 44 43 43 43 43 42 42 41 42 41 41 41 41 40 39 40 39 38 38 36 36 35
34 36 37 39 41 42 43 44 45 45 46 47 48 48 48 48 48 49 49 48 48 47 47 47 46 46 46 45 45 45 44 43 43 43 42 42 41 41 40 40 39 38 37
37 39 41 42 43 44 45 46 47 48 49 50 51 51 51 52 53 53 53 52 52 52 52 51 50 50 50 50 50 48 48 47 46 45 45 45 45 44 45 44 44 44 44
41 43 44 45 47 47 49 50 51 52 53 54 55 56 57 57 57 57 57 57 57 56 56 56 55 55 54 53 53 52 51 51 50 50 50 50 50 50 50 50 50 50 50
43 44 46 47 48 50 52 53 54 55 56 56 57 58 59 60 61 62 62 61 61 60 60 60 59 59 58 57 57 56 55 56 55 56 55 55 55 54 54 53 53 53 53
43 45 46 48 50 51 52 53 54 56 57 59 60 62 63 64 65 65 65 65 66 66 65 64 63 62 61 61 60 60 60 60 60 60 60 59 58 57 56 55 54 54 54
44 46 47 49 51 53 54 56 57 58 58 59 60 61 63 65 67 69 69 69 69 69 69 69 68 66 66 65 64 65 64 64 63 64 64 63 63 61 60 59 58 57 56
41 43 44 46 48 51 53 55 58 59 60 62 63 64 65 67 68 69 70 73 73 74 73 73 72 72 71 70 70 69 68 68 67 67 67 67 66 66 65 63 62 60 59
37 41 43 44 45 46 48 50 52 55 58 62 65 68 68 69 69 69 70 73 72 74 78 77 77 76 76 75 75 74 73 73 72 71 71 71 72 71 70 68 66 64 62
41 41 43 46 48 50 52 53 54 56 58 59 61 64 69 72 74 74 75 74 72 71 72 74 79 81 79 78 78 78 78 77 76 76 76 75 74 75 75 73 71 70 68
Wind_Direction
207 211 217 229 231 236 241 246 255 257 262 260 260 257 256 262 265 269 270 268 278 282 297 316 318 315 342 338 344 353 2 6 32 39 24 18 14 22 22 30 39 29 17
206 216 228 234 242 240 242 246 253 257 253 256 259 260 263 265 271 279 286 286 281 283 289 295 294 309 315 306 314 316 318 327 329 344 351 353 347 351 352 356 356 3 3
207 215 227 237 243 247 245 245 251 255 255 255 258 264 269 271 270 268 271 276 278 278 279 283 285 288 285 287 295 296 300 305 311 319 325 322 319 316 309 320 319 332 337
216 225 235 241 246 251 252 253 253 258 260 261 262 264 266 271 274 275 274 273 276 278 279 279 281 278 278 280 283 287 293 297 297 301 310 306 307 306 308 305 303 307 312
223 230 239 245 247 256 258 255 254 256 260 261 261 263 265 266 267 268 269 271 271 274 275 277 278 279 279 279 281 284 285 289 293 301 296 294 299 300 302 305 307 302 300
229 235 236 244 247 251 256 259 258 256 256 257 260 261 260 263 266 267 266 265 265 266 267 270 272 272 275 276 276 277 279 283 287 289 286 293 295 295 296 299 300 302 296
235 238 245 251 256 257 258 261 264 261 262 262 264 264 262 261 262 265 268 269 270 270 270 269 270 271 273 275 276 277 278 279 281 281 283 286 285 288 292 293 293 294 294
252 254 254 258 260 264 265 265 266 268 269 268 267 265 267 267 265 265 266 268 267 267 266 268 269 269 270 269 271 272 273 275 275 277 279 280 281 282 285 288 289 290 290
261 262 266 269 266 266 268 271 271 271 271 271 270 271 271 271 272 271 271 270 271 270 270 269 270 270 270 271 272 272 274 274 275 272 274 276 278 279 279 281 283 284 286
270 268 267 267 271 270 273 274 275 274 274 274 274 274 274 274 273 273 272 273 272 272 272 272 271 271 272 270 271 272 272 272 274 275 274 275 276 276 277 276 275 278 279
265 267 267 266 268 269 270 271 273 273 274 274 273 274 273 272 273 274 273 274 273 270 270 272 273 273 272 272 270 271 272 273 274 273 273 273 274 274 276 277 277 276 277
262 264 265 266 266 266 269 271 270 270 270 270 270 271 272 272 272 272 272 271 271 272 272 271 270 271 272 272 271 271 270 270 270 270 270 270 272 274 274 274 272 271 269
264 265 265 266 267 268 267 268 268 269 270 270 271 272 271 271 270 271 272 272 271 270 270 270 270 269 268 269 269 268 268 268 267 267 270 269 270 270 270 267 267 267 270
266 267 267 268 269 270 271 270 270 271 271 272 272 272 273 273 273 272 270 270 270 269 269 268 268 267 266 265 265 266 266 267 265 265 266 267 264 265 264 265 267 267 265
273 273 273 274 275 275 276 276 276 274 273 273 273 274 273 272 272 272 272 273 271 271 270 269 269 267 267 266 265 265 265 266 265 264 265 265 263 263 262 262 262 262 262
280 281 281 281 281 281 279 277 277 277 278 278 278 278 277 277 276 276 275 274 273 273 272 271 271 270 269 267 266 266 265 265 264 264 262 262 263 263 263 262 261 260 261
283 284 283 282 281 281 281 281 281 281 280 279 279 278 276 275 274 274 274 273 273 273 272 271 270 269 268 268 268 268 267 267 266 266 264 264 263 262 263 262 262 260 260
281 280 280 280 280 280 281 280 280 280 279 278 278 277 276 276 276 275 274 273 272 271 270 270 269 268 268 268 267 267 266 265 264 264 263 262 262 262 261 262 262 262 262
277 277 278 278 279 279 280 280 281 280 280 279 278 278 277 277 276 275 274 274 273 272 272 271 269 268 267 267 266 265 264 263 262 261 261 260 260 260 261 262 263 264 263
280 280 281 281 281 282 282 282 281 280 279 278 278 278 278 277 276 275 274 273 272 272 271 270 269 268 266 265 264 263 262 261 261 260 260 260 261 261 261 261 261 261 262
284 285 286 286 286 285 285 284 284 283 282 280 280 278 277 277 276 276 276 275 273 271 269 267 267 266 265 264 263 262 261 261 261 261 261 260 260 260 260 261 261 263 263
282 282 281 281 282 282 282 282 283 283 283 284 283 282 281 278 276 273 272 271 270 270 269 268 267 265 264 263 263 262 263 262 262 262 261 261 260 259 258 259 260 260 261
284 283 284 284 285 286 286 286 286 285 285 284 283 283 282 280 278 276 273 271 269 267 267 266 266 265 264 263 263 262 262 261 261 261 260 260 258 258 257 257 257 258 259
290 292 293 294 293 292 290 289 288 287 286 285 284 282 282 282 281 280 279 274 271 269 268 267 266 265 264 264 263 263 262 262 262 261 261 260 259 259 258 258 258 258 258
296 297 297 297 296 297 298 297 297 295 292 289 286 283 282 280 278 278 276 277 278 276 269 267 266 265 264 263 263 263 262 262 261 260 260 260 261 261 261 261 260 259 260
295 296 297 298 298 297 297 296 296 296 295 293 291 289 285 282 280 280 278 277 277 277 276 272 268 265 265 265 263 262 261 261 260 260 259 259 260 261 261 261 262 262 261
Height
5854 5856 5858 5861 5861 5863 5865 5866 5868 5868 5869 5870 5871 5871 5871 5872 5874 5875 5875 5875 5875 5876 5876 5874 5875 5877 5876 5877 5877 5877 5876 5876 5875 5873 5873 5873 5873 5871 5871 5870 5868 5870 5869
5854 5856 5857 5860 5861 5862 5863 5865 5866 5867 5868 5869 5871 5871 5871 5872 5872 5873 5873 5873 5875 5875 5875 5873 5875 5874 5874 5876 5875 5875 5875 5874 5875 5873 5873 5872 5873 5871 5871 5871 5870 5869 5869
5853 5855 5856 5858 5859 5861 5862 5863 5864 5865 5867 5867 5868 5869 5870 5871 5872 5872 5872 5872 5872 5873 5873 5873 5872 5873 5872 5873 5872 5874 5873 5872 5872 5872 5872 5873 5871 5871 5871 5870 5870 5867 5867
5851 5853 5855 5857 5858 5860 5861 5862 5862 5863 5864 5865 5866 5867 5868 5868 5870 5870 5870 5871 5870 5870 5870 5870 5869 5870 5870 5870 5870 5871 5871 5871 5871 5871 5871 5870 5870 5870 5869 5869 5869 5867 5866
5851 5852 5854 5856 5856 5858 5859 5859 5860 5861 5862 5863 5864 5865 5866 5867 5867 5868 5868 5868 5869 5869 5868 5868 5868 5868 5868 5868 5868 5869 5868 5869 5868 5869 5868 5868 5867 5868 5868 5867 5866 5866 5865
5849 5851 5851 5854 5854 5856 5857 5857 5858 5859 5859 5860 5861 5862 5863 5863 5864 5864 5865 5865 5866 5866 5866 5865 5865 5865 5865 5864 5865 5865 5865 5865 5866 5865 5863 5865 5865 5865 5864 5864 5864 5865 5864
5847 5848 5850 5851 5852 5853 5855 5855 5855 5855 5857 5858 5858 5859 5860 5860 5861 5861 5861 5861 5861 5862 5862 5862 5862 5862 5861 5861 5860 5860 5861 5861 5861 5861 5860 5861 5861 5862 5861 5862 5862 5862 5861
5845 5846 5847 5849 5849 5850 5851 5852 5852 5852 5853 5854 5854 5855 5855 5856 5857 5857 5858 5857 5857 5857 5857 5857 5857 5857 5857 5857 5856 5856 5856 5856 5857 5857 5857 5858 5858 5857 5858 5858 5858 5858 5858
5843 5844 5845 5846 5846 5847 5847 5848 5849 5849 5849 5849 5850 5850 5851 5851 5852 5852 5853 5853 5853 5853 5853 5853 5853 5853 5853 5853 5852 5852 5852 5852 5853 5852 5853 5853 5854 5854 5853 5854 5854 5855 5855
5841 5841 5842 5843 5843 5843 5844 5844 5845 5845 5845 5846 5846 5846 5846 5846 5847 5847 5847 5847 5847 5847 5847 5848 5848 5848 5848 5847 5847 5847 5847 5847 5849 5847 5847 5848 5848 5849 5849 5849 5849 5850 5851
5837 5837 5838 5839 5840 5840 5840 5840 5840 5840 5840 5841 5841 5841 5841 5841 5842 5841 5841 5842 5842 5842 5842 5842 5842 5842 5842 5842 5842 5841 5841 5840 5843 5842 5842 5842 5842 5843 5845 5845 5845 5845 5845
5834 5833 5834 5835 5835 5836 5836 5835 5836 5835 5835 5836 5836 5835 5836 5835 5835 5835 5835 5835 5835 5835 5835 5835 5835 5835 5834 5835 5834 5834 5834 5834 5836 5835 5836 5836 5836 5837 5839 5839 5839 5838 5838
5829 5829 5829 5829 5829 5830 5830 5830 5830 5829 5829 5829 5829 5828 5829 5829 5829 5828 5828 5828 5828 5828 5828 5828 5828 5828 5828 5827 5827 5827 5826 5827 5829 5830 5829 5829 5830 5831 5831 5831 5831 5831 5833
5824 5824 5823 5823 5824 5824 5824 5824 5824 5824 5823 5823 5822 5822 5821 5822 5821 5821 5821 5820 5820 5820 5820 5820 5821 5821 5821 5821 5820 5820 5820 5820 5821 5823 5823 5823 5823 5823 5823 5823 5826 5826 5826
5820 5820 5819 5819 5819 5819 5818 5817 5817 5817 5817 5816 5815 5814 5814 5814 5813 5813 5813 5812 5812 5812 5812 5812 5812 5813 5814 5813 5813 5813 5813 5813 5813 5815 5816 5815 5815 5816 5815 5816 5819 5818 5817
5815 5814 5814 5813 5813 5812 5812 5811 5811 5810 5809 5808 5807 5807 5806 5806 5805 5805 5804 5804 5804 5804 5804 5804 5804 5804 5804 5805 5805 5804 5806 5806 5805 5807 5807 5807 5808 5809 5808 5810 5811 5810 5811
5808 5808 5807 5807 5806 5805 5804 5804 5803 5802 5802 5801 5800 5799 5799 5797 5797 5795 5795 5795 5795 5794 5794 5794 5794 5795 5795 5795 5796 5796 5797 5796 5797 5797 5799 5799 5800 5800 5800 5801 5801 5803 5804
5802 5801 5800 5799 5798 5797 5796 5795 5794 5792 5791 5791 5791 5790 5789 5788 5787 5786 5786 5785 5784 5784 5784 5784 5785 5785 5786 5785 5785 5785 5786 5786 5787 5788 5789 5789 5790 5791 5792 5792 5793 5794 5795
5792 5792 5791 5790 5788 5787 5786 5785 5784 5783 5782 5782 5781 5780 5778 5777 5777 5776 5774 5774 5773 5773 5773 5773 5773 5773 5774 5774 5774 5774 5775 5776 5776 5777 5778 5779 5780 5780 5781 5782 5783 5784 5786
5785 5783 5782 5781 5780 5779 5778 5777 5775 5774 5772 5771 5769 5768 5767 5766 5765 5764 5763 5762 5761 5761 5760 5761 5761 5761 5761 5761 5762 5763 5764 5764 5765 5766 5767 5768 5769 5769 5769 5770 5772 5773 5774
5776 5774 5772 5771 5769 5767 5766 5764 5763 5761 5760 5758 5757 5755 5753 5752 5750 5749 5749 5748 5747 5747 5747 5747 5747 5748 5748 5748 5749 5749 5751 5750 5752 5753 5753 5755 5756 5757 5758 5758 5760 5761 5762
5766 5764 5762 5760 5757 5755 5753 5751 5749 5747 5745 5743 5741 5740 5738 5737 5736 5735 5734 5733 5732 5731 5731 5731 5731 5732 5732 5733 5733 5734 5736 5736 5737 5738 5739 5740 5742 5744 5745 5746 5747 5748 5749
5755 5753 5751 5749 5747 5744 5742 5739 5736 5734 5732 5729 5727 5726 5724 5723 5721 5720 5719 5718 5716 5715 5714 5714 5714 5714 5714 5715 5715 5716 5718 5720 5722 5722 5723 5725 5727 5729 5730 5732 5734 5735 5736
5745 5742 5740 5737 5734 5731 5729 5726 5723 5721 5718 5715 5713 5710 5708 5706 5705 5703 5702 5701 5699 5698 5697 5696 5696 5696 5697 5697 5698 5698 5699 5701 5703 5705 5707 5708 5710 5712 5715 5716 5719 5721 5722
5735 5732 5729 5726 5722 5719 5716 5712 5709 5707 5704 5701 5698 5694 5691 5688 5685 5683 5682 5681 5680 5679 5678 5677 5677 5676 5677 5677 5678 5679 5680 5682 5683 5686 5688 5690 5691 5693 5696 5698 5701 5704 5706
5724 5721 5717 5713 5709 5706 5702 5698 5694 5691 5688 5684 5681 5677 5673 5670 5667 5664 5662 5661 5659 5658 5657 5656 5655 5655 5656 5656 5656 5658 5659 5661 5663 5666 5668 5671 5673 5673 5676 5679 5681 5684 5687